Weather History for McKinney, TX

Change the Weather History Date:

Wednesday, November 2, 2011

  Actual Average (KADS) Record (KADS)
Temperature  
Mean Temperature 63 °F -  
Max Temperature 79 °F 67 °F 86 °F (2012)
Min Temperature 46 °F 52 °F 37 °F (1996)
Degree Days  
Heating Degree Days 2    
Growing Degree Days 13 (Base 50)    
Moisture  
Dew Point 54 °F    
Average Humidity 72    
Maximum Humidity 90    
Minimum Humidity 50    
Precipitation  
Precipitation 0.04 in - - ()
Sea Level Pressure  
Sea Level Pressure 30.04 in    
Wind  
Wind Speed 16 mph (South)    
Max Wind Speed 25 mph    
Max Gust Speed 38 mph    
Visibility 10 miles    
Events Rain    
Averages and records for this station are not official NWS values.
T = Trace of Precipitation, MM = Missing Value Source: NWS Daily Summary

Daily Weather History Graph

Daily Weather History Graph

Search for Another Location

Airport:

Trip Planner

Search our weather history database for the weather conditions in past years. The results will help you decide how hot, cold, wet, or windy it might be!

Date:

Astronomy

Nov. 02, 2011 Rise Set
Actual Time 7:45 AM CDT 6:34 PM CDT
Civil Twilight 7:19 AM CDT 6:59 PM CDT
Nautical Twilight 6:50 AM CDT 7:28 PM CDT
Astronomical Twilight 6:21 AM CDT 7:57 PM CDT
Moon 2:06 PM CDT (11/2) 12:20 AM CDT (11/2)
Length of Visible Light 11h 39m
Length of Day
10h 48m
Waxing Crescent, 50% of the Moon is Illuminated
Nov 2
Waxing Crescent
Nov 10
Full
Nov 18
Last Quarter
Nov 25
New
Dec 2
First Quarter

Hourly Weather History & Observations

Time (CDT) Temp. Dew Point Humidity Pressure Visibility Wind Dir Wind Speed Gust Speed Precip Events Conditions
12:53 AM 64.0 °F 54.0 °F 70% 30.01 in 10.0 mi South 15.0 mph - N/A   Clear
1:53 AM 64.0 °F 55.9 °F 75% 30.00 in 10.0 mi South 18.4 mph 26.5 mph N/A   Clear
2:53 AM 63.0 °F 55.9 °F 78% 30.00 in 10.0 mi South 16.1 mph - N/A   Clear
3:53 AM 62.1 °F 55.9 °F 80% 30.00 in 10.0 mi South 15.0 mph - N/A   Clear
4:53 AM 60.1 °F 55.9 °F 86% 30.00 in 10.0 mi South 11.5 mph - N/A   Clear
5:53 AM 60.1 °F 57.0 °F 90% 30.01 in 10.0 mi South 10.4 mph - N/A   Scattered Clouds
6:00 AM 60.8 °F 57.2 °F 88% 30.01 in 10.0 mi SSE 6.9 mph - N/A   Mostly Cloudy
6:53 AM 60.1 °F 57.0 °F 90% 30.01 in 9.0 mi SSE 12.7 mph - N/A   Overcast
8:53 AM 63.0 °F 59.0 °F 87% 30.03 in 8.0 mi South 17.3 mph 21.9 mph N/A   Overcast
9:20 AM 62.6 °F 59.0 °F 88% 30.03 in 9.0 mi South 17.3 mph 25.3 mph N/A   Mostly Cloudy
9:53 AM 64.9 °F 59.0 °F 81% 30.04 in 9.0 mi South 18.4 mph - N/A   Mostly Cloudy
10:40 AM 68.0 °F 60.8 °F 78% 30.02 in 10.0 mi South 17.3 mph 25.3 mph N/A   Mostly Cloudy
10:53 AM 68.0 °F 60.1 °F 76% 30.03 in 10.0 mi South 18.4 mph 23.0 mph N/A   Mostly Cloudy
11:27 AM 69.8 °F 60.8 °F 73% 30.01 in 10.0 mi South 25.3 mph 31.1 mph N/A   Mostly Cloudy
11:53 AM 71.1 °F 60.1 °F 68% 30.01 in 10.0 mi South 19.6 mph 26.5 mph N/A   Mostly Cloudy
12:00 PM 71.6 °F 60.8 °F 69% 30.00 in 10.0 mi South 19.6 mph 25.3 mph N/A   Mostly Cloudy
12:28 PM 71.6 °F 60.8 °F 69% 29.98 in 10.0 mi South 18.4 mph - N/A   Mostly Cloudy
12:35 PM 71.6 °F 60.8 °F 69% 29.98 in 10.0 mi South 16.1 mph - N/A   Overcast
1:53 PM 73.9 °F 59.0 °F 59% 29.96 in 10.0 mi South 15.0 mph - N/A   Overcast
2:53 PM 78.1 °F 57.9 °F 50% 29.93 in 10.0 mi South 16.1 mph - N/A   Mostly Cloudy
4:53 PM 75.9 °F 57.9 °F 54% 29.94 in 10.0 mi South 10.4 mph - N/A   Overcast
5:53 PM 70.0 °F 53.1 °F 55% 30.01 in 10.0 mi WNW 19.6 mph 34.5 mph N/A   Overcast
6:07 PM 62.6 °F 51.8 °F 68% 30.02 in 10.0 mi NW 18.4 mph 38.0 mph 0.00 in Rain Light Rain
6:53 PM 61.0 °F 45.0 °F 56% 30.07 in 10.0 mi NW 17.3 mph 32.2 mph 0.00 in   Overcast
7:53 PM 55.9 °F 42.1 °F 60% 30.14 in 10.0 mi NW 19.6 mph 35.7 mph N/A   Overcast
8:53 PM 52.0 °F 41.0 °F 66% 30.17 in 10.0 mi NW 12.7 mph 25.3 mph 0.03 in   Overcast
9:53 PM 50.0 °F 39.0 °F 66% 30.22 in 10.0 mi WNW 16.1 mph 27.6 mph 0.00 in Rain Light Rain
10:53 PM 48.9 °F 37.0 °F 64% 30.26 in 10.0 mi NW 17.3 mph 24.2 mph 0.00 in   Overcast
11:53 PM 46.9 °F 34.0 °F 61% 30.27 in 10.0 mi NNW 12.7 mph 24.2 mph 0.01 in   Mostly Cloudy